Time,TemperatureF,DewpointF,PressureIn,WindDirection,WindDirectionDegrees,WindSpeedMPH,WindSpeedGustMPH,Humidity,HourlyPrecipIn,Conditions,Clouds,dailyrainin,SoftwareType,DateUTC
2014-07-23 00:02:00,74.7,65.8,30.03,NW,321,0.0,17.0,74,0.00,,,0.00,meteohub,2014-07-23 05:02:00,
2014-07-23 00:07:00,74.5,65.7,30.03,NNW,341,5.0,15.0,74,0.00,,,0.00,meteohub,2014-07-23 05:07:00,
2014-07-23 00:12:00,74.1,64.9,30.04,North,356,7.0,16.0,73,0.00,,,0.00,meteohub,2014-07-23 05:12:00,
2014-07-23 00:17:00,74.3,65.1,30.04,NNW,339,12.0,17.0,73,0.00,,,0.00,meteohub,2014-07-23 05:17:00,
2014-07-23 00:22:00,74.1,65.3,30.04,NNW,328,9.0,17.0,74,0.00,,,0.00,meteohub,2014-07-23 05:22:00,
2014-07-23 00:27:00,73.8,64.9,30.04,North,350,0.0,17.0,74,0.00,,,0.00,meteohub,2014-07-23 05:27:00,
2014-07-23 00:32:00,73.8,65.3,30.04,NNW,333,5.0,15.0,75,0.00,,,0.00,meteohub,2014-07-23 05:32:00,
2014-07-23 00:37:00,73.6,65.1,30.05,NNW,346,8.0,13.0,75,0.00,,,0.00,meteohub,2014-07-23 05:37:00,
2014-07-23 00:42:00,73.2,64.8,30.06,NE,36,7.0,12.0,75,0.00,,,0.00,meteohub,2014-07-23 05:42:00,
2014-07-23 00:47:00,73.2,64.8,30.06,ENE,66,10.0,12.0,75,0.00,,,0.00,meteohub,2014-07-23 05:47:00,
2014-07-23 00:52:00,72.7,64.2,30.06,East,79,20.0,20.0,75,0.00,,,0.00,meteohub,2014-07-23 05:52:00,
2014-07-23 00:57:00,72.1,64.2,30.06,ENE,58,8.0,21.0,76,0.00,,,0.00,meteohub,2014-07-23 05:57:00,
2014-07-23 01:02:00,71.8,64.2,30.07,ENE,72,2.0,21.0,77,0.00,,,0.00,meteohub,2014-07-23 06:02:00,
2014-07-23 01:07:00,71.6,64.0,30.06,NNW,333,10.0,21.0,77,0.00,,,0.00,meteohub,2014-07-23 06:07:00,
2014-07-23 01:12:00,71.2,63.7,30.07,NNE,14,7.0,19.0,77,0.00,,,0.00,meteohub,2014-07-23 06:12:00,
2014-07-23 01:17:00,71.1,63.5,30.07,ESE,103,8.0,19.0,77,0.00,,,0.00,meteohub,2014-07-23 06:17:00,
2014-07-23 01:22:00,71.1,63.5,30.07,North,2,11.0,16.0,77,0.00,,,0.00,meteohub,2014-07-23 06:22:00,
2014-07-23 01:27:00,70.9,63.3,30.08,ENE,66,6.0,16.0,77,0.00,,,0.00,meteohub,2014-07-23 06:27:00,
2014-07-23 01:32:00,70.7,62.8,30.08,NE,46,4.0,16.0,76,0.00,,,0.00,meteohub,2014-07-23 06:32:00,
2014-07-23 01:37:00,70.3,62.8,30.08,East,87,8.0,16.0,77,0.00,,,0.00,meteohub,2014-07-23 06:37:00,
2014-07-23 01:42:00,70.3,62.4,30.09,NNE,26,5.0,16.0,76,0.00,,,0.00,meteohub,2014-07-23 06:42:00,
2014-07-23 01:47:00,70.2,62.2,30.09,NW,324,10.0,15.0,76,0.00,,,0.00,meteohub,2014-07-23 06:47:00,
2014-07-23 01:52:00,70.0,62.1,30.09,NNW,343,1.0,14.0,76,0.00,,,0.00,meteohub,2014-07-23 06:52:00,
2014-07-23 01:57:00,69.6,62.1,30.09,ENE,58,8.0,14.0,77,0.00,,,0.00,meteohub,2014-07-23 06:57:00,
2014-07-23 02:02:00,69.4,62.2,30.09,North,3,4.0,14.0,78,0.00,,,0.00,meteohub,2014-07-23 07:02:00,
2014-07-23 02:07:00,69.3,61.7,30.09,North,2,7.0,14.0,77,0.00,,,0.00,meteohub,2014-07-23 07:07:00,
2014-07-23 02:12:00,69.1,61.2,30.09,NNW,342,8.0,15.0,76,0.00,,,0.00,meteohub,2014-07-23 07:12:00,
2014-07-23 02:17:00,68.7,61.2,30.09,NE,50,5.0,15.0,77,0.00,,,0.00,meteohub,2014-07-23 07:17:00,
2014-07-23 02:22:00,68.7,60.8,30.09,NE,56,7.0,15.0,76,0.00,,,0.00,meteohub,2014-07-23 07:22:00,
2014-07-23 02:27:00,68.5,61.0,30.09,NE,39,7.0,12.0,77,0.00,,,0.00,meteohub,2014-07-23 07:27:00,
2014-07-23 02:32:00,68.5,61.0,30.09,NNW,333,5.0,14.0,77,0.00,,,0.00,meteohub,2014-07-23 07:32:00,
2014-07-23 02:37:00,68.2,60.6,30.09,NE,53,11.0,15.0,77,0.00,,,0.00,meteohub,2014-07-23 07:37:00,
2014-07-23 02:42:00,68.0,60.4,30.10,North,356,13.0,15.0,77,0.00,,,0.00,meteohub,2014-07-23 07:42:00,
2014-07-23 02:47:00,67.8,59.9,30.09,North,9,7.0,16.0,76,0.00,,,0.00,meteohub,2014-07-23 07:47:00,
2014-07-23 02:52:00,67.6,60.3,30.09,NNW,347,8.0,16.0,77,0.00,,,0.00,meteohub,2014-07-23 07:52:00,
2014-07-23 02:57:00,67.6,60.3,30.10,NNE,33,9.0,16.0,77,0.00,,,0.00,meteohub,2014-07-23 07:57:00,
2014-07-23 03:02:00,67.8,59.9,30.10,NNE,27,7.0,16.0,76,0.00,,,0.00,meteohub,2014-07-23 08:02:00,
2014-07-23 03:07:00,67.6,60.3,30.09,NNE,29,4.0,17.0,77,0.00,,,0.00,meteohub,2014-07-23 08:07:00,
2014-07-23 03:12:00,67.3,60.3,30.09,NNW,337,8.0,17.0,78,0.00,,,0.00,meteohub,2014-07-23 08:12:00,
2014-07-23 03:17:00,67.1,60.1,30.10,NNE,24,12.0,15.0,78,0.00,,,0.00,meteohub,2014-07-23 08:17:00,
2014-07-23 03:22:00,66.9,59.9,30.10,NNW,347,6.0,15.0,78,0.00,,,0.00,meteohub,2014-07-23 08:22:00,
2014-07-23 03:27:00,66.9,59.9,30.10,NNE,27,5.0,14.0,78,0.00,,,0.00,meteohub,2014-07-23 08:27:00,
2014-07-23 03:32:00,66.7,60.1,30.10,North,8,12.0,14.0,79,0.00,,,0.00,meteohub,2014-07-23 08:32:00,
2014-07-23 03:37:00,66.9,59.9,30.10,NNE,29,8.0,14.0,78,0.00,,,0.00,meteohub,2014-07-23 08:37:00,
2014-07-23 03:42:00,66.6,59.2,30.10,NNE,27,4.0,14.0,77,0.00,,,0.00,meteohub,2014-07-23 08:42:00,
2014-07-23 03:47:00,66.6,59.5,30.10,North,0,5.0,13.0,78,0.00,,,0.00,meteohub,2014-07-23 08:47:00,
2014-07-23 03:52:00,66.4,59.4,30.10,North,353,1.0,15.0,78,0.00,,,0.00,meteohub,2014-07-23 08:52:00,
2014-07-23 03:57:00,66.4,59.4,30.11,East,94,0.0,15.0,78,0.00,,,0.00,meteohub,2014-07-23 08:57:00,
2014-07-23 04:02:00,66.4,59.4,30.11,NNW,347,4.0,15.0,78,0.00,,,0.00,meteohub,2014-07-23 09:02:00,
2014-07-23 04:07:00,66.0,59.4,30.11,NNW,344,8.0,13.0,79,0.00,,,0.00,meteohub,2014-07-23 09:07:00,
2014-07-23 04:12:00,65.8,59.2,30.10,NNE,32,6.0,13.0,79,0.00,,,0.00,meteohub,2014-07-23 09:12:00,
2014-07-23 04:17:00,65.8,59.2,30.11,NNE,33,5.0,13.0,79,0.00,,,0.00,meteohub,2014-07-23 09:17:00,
2014-07-23 04:22:00,65.7,59.0,30.11,NNE,28,7.0,14.0,79,0.00,,,0.00,meteohub,2014-07-23 09:22:00,
2014-07-23 04:27:00,65.8,59.2,30.12,North,357,0.0,14.0,79,0.00,,,0.00,meteohub,2014-07-23 09:27:00,
2014-07-23 04:32:00,65.7,59.0,30.12,NE,37,6.0,14.0,79,0.00,,,0.00,meteohub,2014-07-23 09:32:00,
2014-07-23 04:37:00,65.7,59.4,30.12,NNE,26,7.0,11.0,80,0.00,,,0.00,meteohub,2014-07-23 09:37:00,
2014-07-23 04:42:00,65.5,59.2,30.12,North,2,1.0,12.0,80,0.00,,,0.00,meteohub,2014-07-23 09:42:00,
2014-07-23 04:47:00,65.5,59.2,30.12,North,357,7.0,13.0,80,0.00,,,0.00,meteohub,2014-07-23 09:47:00,
2014-07-23 04:52:00,65.3,59.0,30.13,NNE,21,3.0,13.0,80,0.00,,,0.00,meteohub,2014-07-23 09:52:00,
2014-07-23 04:57:00,65.1,58.8,30.13,ENE,75,3.0,13.0,80,0.00,,,0.00,meteohub,2014-07-23 09:57:00,
2014-07-23 05:02:00,65.1,58.8,30.12,North,10,7.0,14.0,80,0.00,,,0.00,meteohub,2014-07-23 10:02:00,
2014-07-23 05:07:00,64.9,59.0,30.12,NNE,31,5.0,14.0,81,0.00,,,0.00,meteohub,2014-07-23 10:07:00,
2014-07-23 05:12:00,64.8,58.8,30.13,NNW,329,6.0,14.0,81,0.00,,,0.00,meteohub,2014-07-23 10:12:00,
2014-07-23 05:17:00,64.6,58.6,30.13,NNW,347,4.0,13.0,81,0.00,,,0.00,meteohub,2014-07-23 10:17:00,
2014-07-23 05:22:00,64.6,58.6,30.13,NNE,32,2.0,11.0,81,0.00,,,0.00,meteohub,2014-07-23 10:22:00,
2014-07-23 05:27:00,64.6,58.6,30.13,NE,42,8.0,13.0,81,0.00,,,0.00,meteohub,2014-07-23 10:27:00,
2014-07-23 05:32:00,64.4,58.5,30.13,North,11,8.0,13.0,81,0.00,,,0.00,meteohub,2014-07-23 10:32:00,
2014-07-23 05:37:00,64.2,58.3,30.13,ENE,58,7.0,13.0,81,0.00,,,0.00,meteohub,2014-07-23 10:37:00,
2014-07-23 05:42:00,64.2,58.3,30.13,NNE,28,3.0,13.0,81,0.00,,,0.00,meteohub,2014-07-23 10:42:00,
2014-07-23 05:47:00,64.2,58.3,30.13,NNE,25,5.0,13.0,81,0.00,,,0.00,meteohub,2014-07-23 10:47:00,
2014-07-23 05:52:00,64.2,57.9,30.13,North,355,7.0,12.0,80,0.00,,,0.00,meteohub,2014-07-23 10:52:00,
2014-07-23 05:57:00,64.2,58.3,30.13,WNW,301,1.0,12.0,81,0.00,,,0.00,meteohub,2014-07-23 10:57:00,
2014-07-23 06:02:00,64.2,57.9,30.13,NE,45,4.0,12.0,80,0.00,,,0.00,meteohub,2014-07-23 11:02:00,
2014-07-23 06:07:00,64.0,57.7,30.14,ENE,64,10.0,12.0,80,0.00,,,0.00,meteohub,2014-07-23 11:07:00,
2014-07-23 06:12:00,64.0,58.1,30.14,North,3,4.0,14.0,81,0.00,,,0.00,meteohub,2014-07-23 11:12:00,
2014-07-23 06:17:00,64.4,58.1,30.14,NNE,14,6.0,14.0,80,0.00,,,0.00,meteohub,2014-07-23 11:17:00,
2014-07-23 06:22:00,64.2,57.9,30.15,NNW,345,3.0,14.0,80,0.00,,,0.00,meteohub,2014-07-23 11:22:00,
2014-07-23 06:27:00,64.2,57.9,30.15,NNE,16,3.0,11.0,80,0.00,,,0.00,meteohub,2014-07-23 11:27:00,
2014-07-23 06:32:00,64.2,58.3,30.15,NE,49,5.0,14.0,81,0.00,,,0.00,meteohub,2014-07-23 11:32:00,
2014-07-23 06:37:00,64.2,58.3,30.16,NE,46,3.0,14.0,81,0.00,,,0.00,meteohub,2014-07-23 11:37:00,
2014-07-23 06:42:00,64.2,57.9,30.16,NNE,31,4.0,14.0,80,0.00,,,0.00,meteohub,2014-07-23 11:42:00,
2014-07-23 06:47:00,64.2,57.9,30.16,North,11,6.0,11.0,80,0.00,,,0.00,meteohub,2014-07-23 11:47:00,
2014-07-23 06:52:00,64.6,58.3,30.16,ENE,68,6.0,12.0,80,0.00,,,0.00,meteohub,2014-07-23 11:52:00,
2014-07-23 06:57:00,64.8,58.5,30.16,NNE,15,0.0,12.0,80,0.00,,,0.00,meteohub,2014-07-23 11:57:00,
2014-07-23 07:02:00,64.9,58.3,30.17,NNE,33,5.0,11.0,79,0.00,,,0.00,meteohub,2014-07-23 12:02:00,
2014-07-23 07:07:00,64.8,58.1,30.16,North,349,6.0,13.0,79,0.00,,,0.00,meteohub,2014-07-23 12:07:00,
2014-07-23 07:12:00,64.9,58.3,30.16,ENE,78,5.0,13.0,79,0.00,,,0.00,meteohub,2014-07-23 12:12:00,
2014-07-23 07:17:00,64.9,57.9,30.16,ENE,67,6.0,11.0,78,0.00,,,0.00,meteohub,2014-07-23 12:17:00,
2014-07-23 07:22:00,64.8,58.1,30.16,NE,35,7.0,11.0,79,0.00,,,0.00,meteohub,2014-07-23 12:22:00,
2014-07-23 07:27:00,65.3,58.3,30.16,NNE,31,8.0,11.0,78,0.00,,,0.00,meteohub,2014-07-23 12:27:00,
2014-07-23 07:32:00,65.5,58.5,30.17,NE,36,7.0,11.0,78,0.00,,,0.00,meteohub,2014-07-23 12:32:00,
2014-07-23 07:37:00,65.1,57.7,30.17,NNW,328,4.0,11.0,77,0.00,,,0.00,meteohub,2014-07-23 12:37:00,
2014-07-23 07:42:00,65.3,58.3,30.16,NNE,20,7.0,11.0,78,0.00,,,0.00,meteohub,2014-07-23 12:42:00,
2014-07-23 07:47:00,64.9,57.9,30.17,ENE,74,7.0,11.0,78,0.00,,,0.00,meteohub,2014-07-23 12:47:00,
2014-07-23 07:52:00,65.1,58.1,30.17,East,81,8.0,13.0,78,0.00,,,0.00,meteohub,2014-07-23 12:52:00,
2014-07-23 07:57:00,65.7,58.3,30.17,ENE,58,6.0,13.0,77,0.00,,,0.00,meteohub,2014-07-23 12:57:00,
2014-07-23 08:02:00,65.5,58.1,30.17,NE,54,8.0,13.0,77,0.00,,,0.00,meteohub,2014-07-23 13:02:00,
2014-07-23 08:07:00,65.5,58.1,30.17,NNE,33,2.0,14.0,77,0.00,,,0.00,meteohub,2014-07-23 13:07:00,
2014-07-23 08:12:00,66.2,58.8,30.17,NNE,29,7.0,14.0,77,0.00,,,0.00,meteohub,2014-07-23 13:12:00,
2014-07-23 08:17:00,66.6,58.8,30.18,NNW,341,5.0,10.0,76,0.00,,,0.00,meteohub,2014-07-23 13:17:00,
2014-07-23 08:22:00,66.7,58.6,30.17,NNW,342,2.0,10.0,75,0.00,,,0.00,meteohub,2014-07-23 13:22:00,
2014-07-23 08:27:00,66.7,59.0,30.18,North,354,2.0,10.0,76,0.00,,,0.00,meteohub,2014-07-23 13:27:00,
2014-07-23 08:32:00,66.7,58.6,30.18,NNE,27,4.0,9.0,75,0.00,,,0.00,meteohub,2014-07-23 13:32:00,
2014-07-23 08:37:00,66.7,58.6,30.18,North,2,6.0,10.0,75,0.00,,,0.00,meteohub,2014-07-23 13:37:00,
2014-07-23 08:42:00,66.6,58.8,30.18,NNE,16,7.0,11.0,76,0.00,,,0.00,meteohub,2014-07-23 13:42:00,
2014-07-23 08:47:00,67.1,58.8,30.18,NE,41,2.0,11.0,75,0.00,,,0.00,meteohub,2014-07-23 13:47:00,
2014-07-23 08:52:00,67.5,58.5,30.18,North,351,3.0,11.0,73,0.00,,,0.00,meteohub,2014-07-23 13:52:00,
2014-07-23 08:57:00,67.5,58.8,30.18,NE,39,4.0,9.0,74,0.00,,,0.00,meteohub,2014-07-23 13:57:00,
2014-07-23 09:02:00,67.8,58.8,30.18,NW,322,2.0,9.0,73,0.00,,,0.00,meteohub,2014-07-23 14:02:00,
2014-07-23 09:07:00,68.2,58.5,30.18,NNE,13,3.0,9.0,71,0.00,,,0.00,meteohub,2014-07-23 14:07:00,
2014-07-23 09:12:00,67.8,58.8,30.19,NE,39,8.0,9.0,73,0.00,,,0.00,meteohub,2014-07-23 14:12:00,
2014-07-23 09:17:00,67.6,58.6,30.19,NNE,16,0.0,12.0,73,0.00,,,0.00,meteohub,2014-07-23 14:17:00,
2014-07-23 09:22:00,68.7,58.5,30.19,NE,51,1.0,12.0,70,0.00,,,0.00,meteohub,2014-07-23 14:22:00,
2014-07-23 09:27:00,69.3,58.6,30.19,NW,317,6.0,12.0,69,0.00,,,0.00,meteohub,2014-07-23 14:27:00,
2014-07-23 09:32:00,68.9,59.2,30.19,NW,314,7.0,9.0,71,0.00,,,0.00,meteohub,2014-07-23 14:32:00,
2014-07-23 09:37:00,68.7,59.4,30.19,NNW,331,0.0,11.0,72,0.00,,,0.00,meteohub,2014-07-23 14:37:00,
2014-07-23 09:42:00,69.3,58.3,30.18,NNE,16,8.0,11.0,68,0.00,,,0.00,meteohub,2014-07-23 14:42:00,
2014-07-23 09:47:00,69.3,57.9,30.18,North,6,2.0,15.0,67,0.00,,,0.00,meteohub,2014-07-23 14:47:00,
2014-07-23 09:52:00,69.6,57.7,30.18,North,7,4.0,15.0,66,0.00,,,0.00,meteohub,2014-07-23 14:52:00,
2014-07-23 09:57:00,70.0,58.5,30.18,NNW,339,1.0,15.0,67,0.00,,,0.00,meteohub,2014-07-23 14:57:00,
2014-07-23 10:02:00,70.2,58.3,30.19,NNE,16,3.0,12.0,66,0.00,,,0.00,meteohub,2014-07-23 15:02:00,
2014-07-23 10:07:00,70.3,58.1,30.19,ENE,58,5.0,14.0,65,0.00,,,0.00,meteohub,2014-07-23 15:07:00,
2014-07-23 10:12:00,70.3,57.6,30.19,NE,43,2.0,14.0,64,0.00,,,0.00,meteohub,2014-07-23 15:12:00,
2014-07-23 10:17:00,70.5,58.1,30.19,NNE,26,11.0,14.0,65,0.00,,,0.00,meteohub,2014-07-23 15:17:00,
2014-07-23 10:22:00,70.5,57.7,30.19,NNE,14,1.0,13.0,64,0.00,,,0.00,meteohub,2014-07-23 15:22:00,
2014-07-23 10:27:00,70.9,57.7,30.19,NNE,14,8.0,13.0,63,0.00,,,0.00,meteohub,2014-07-23 15:27:00,
2014-07-23 10:32:00,70.5,57.7,30.19,NNE,25,13.0,13.0,64,0.00,,,0.00,meteohub,2014-07-23 15:32:00,
2014-07-23 10:37:00,71.1,57.7,30.19,NE,39,5.0,14.0,63,0.00,,,0.00,meteohub,2014-07-23 15:37:00,
2014-07-23 10:42:00,71.1,56.8,30.19,North,9,3.0,14.0,61,0.00,,,0.00,meteohub,2014-07-23 15:42:00,
2014-07-23 10:47:00,71.4,57.7,30.19,NNE,29,3.0,14.0,62,0.00,,,0.00,meteohub,2014-07-23 15:47:00,
2014-07-23 10:52:00,71.8,58.1,30.19,NNW,347,2.0,12.0,62,0.00,,,0.00,meteohub,2014-07-23 15:52:00,
2014-07-23 10:57:00,71.4,57.7,30.19,NE,46,2.0,12.0,62,0.00,,,0.00,meteohub,2014-07-23 15:57:00,
2014-07-23 11:02:00,71.4,57.2,30.19,ENE,61,6.0,15.0,61,0.00,,,0.00,meteohub,2014-07-23 16:02:00,
2014-07-23 11:07:00,71.8,57.2,30.19,North,0,11.0,16.0,60,0.00,,,0.00,meteohub,2014-07-23 16:07:00,
2014-07-23 11:12:00,71.8,56.7,30.19,NNE,29,11.0,18.0,59,0.00,,,0.00,meteohub,2014-07-23 16:12:00,
2014-07-23 11:17:00,71.6,57.0,30.19,NNW,332,8.0,18.0,60,0.00,,,0.00,meteohub,2014-07-23 16:17:00,
2014-07-23 11:22:00,72.0,57.4,30.19,North,351,7.0,18.0,60,0.00,,,0.00,meteohub,2014-07-23 16:22:00,
2014-07-23 11:27:00,72.9,57.7,30.18,North,355,7.0,17.0,59,0.00,,,0.00,meteohub,2014-07-23 16:27:00,
2014-07-23 11:32:00,72.7,57.9,30.19,NW,311,3.0,17.0,60,0.00,,,0.00,meteohub,2014-07-23 16:32:00,
2014-07-23 11:37:00,72.3,57.2,30.19,NNW,336,0.0,17.0,59,0.00,,,0.00,meteohub,2014-07-23 16:37:00,
2014-07-23 11:42:00,72.0,56.8,30.19,NNW,332,9.0,12.0,59,0.00,,,0.00,meteohub,2014-07-23 16:42:00,
2014-07-23 11:47:00,72.3,56.7,30.18,North,349,13.0,14.0,58,0.00,,,0.00,meteohub,2014-07-23 16:47:00,
2014-07-23 11:52:00,72.5,56.8,30.18,NE,35,3.0,18.0,58,0.00,,,0.00,meteohub,2014-07-23 16:52:00,
2014-07-23 11:57:00,72.9,57.7,30.18,NE,39,6.0,18.0,59,0.00,,,0.00,meteohub,2014-07-23 16:57:00,
2014-07-23 12:02:00,73.0,56.8,30.18,ENE,73,0.0,18.0,57,0.00,,,0.00,meteohub,2014-07-23 17:02:00,
2014-07-23 12:07:00,73.0,57.4,30.18,NE,44,10.0,15.0,58,0.00,,,0.00,meteohub,2014-07-23 17:07:00,
2014-07-23 12:12:00,73.0,56.5,30.18,NNE,32,10.0,14.0,56,0.00,,,0.00,meteohub,2014-07-23 17:12:00,
2014-07-23 12:17:00,73.0,57.4,30.17,NNW,335,9.0,14.0,58,0.00,,,0.00,meteohub,2014-07-23 17:17:00,
2014-07-23 12:23:00,73.8,57.6,30.17,NNW,347,1.0,14.0,57,0.00,,,0.00,meteohub,2014-07-23 17:23:00,
2014-07-23 12:28:00,74.5,57.2,30.17,NE,44,10.0,13.0,55,0.00,,,0.00,meteohub,2014-07-23 17:28:00,
2014-07-23 12:33:00,74.5,57.2,30.17,NNW,335,10.0,13.0,55,0.00,,,0.00,meteohub,2014-07-23 17:33:00,
2014-07-23 12:38:00,74.8,57.0,30.17,NE,48,12.0,13.0,54,0.00,,,0.00,meteohub,2014-07-23 17:38:00,
2014-07-23 12:43:00,74.7,55.9,30.17,North,6,8.0,14.0,52,0.00,,,0.00,meteohub,2014-07-23 17:43:00,
2014-07-23 12:48:00,75.4,56.5,30.17,NE,37,3.0,14.0,52,0.00,,,0.00,meteohub,2014-07-23 17:48:00,
2014-07-23 12:53:00,74.7,56.5,30.17,NNW,342,6.0,14.0,53,0.00,,,0.00,meteohub,2014-07-23 17:53:00,
2014-07-23 12:58:00,73.9,56.3,30.17,NNW,333,9.0,14.0,54,0.00,,,0.00,meteohub,2014-07-23 17:58:00,
2014-07-23 13:04:00,74.3,57.0,30.17,NE,51,5.0,14.0,55,0.00,,,0.00,meteohub,2014-07-23 18:04:00,
2014-07-23 13:09:00,74.5,56.3,30.17,NE,49,9.0,14.0,53,0.00,,,0.00,meteohub,2014-07-23 18:09:00,
2014-07-23 13:14:00,74.5,56.7,30.17,NNE,24,6.0,15.0,54,0.00,,,0.00,meteohub,2014-07-23 18:14:00,
2014-07-23 13:19:00,75.4,56.5,30.17,NNE,20,6.0,16.0,52,0.00,,,0.00,meteohub,2014-07-23 18:19:00,
2014-07-23 13:24:00,75.0,55.6,30.17,NNE,19,0.0,16.0,51,0.00,,,0.00,meteohub,2014-07-23 18:24:00,
2014-07-23 13:29:00,74.8,55.6,30.17,ENE,57,7.0,16.0,51,0.00,,,0.00,meteohub,2014-07-23 18:29:00,
2014-07-23 13:34:00,75.0,55.6,30.17,NNW,344,6.0,14.0,51,0.00,,,0.00,meteohub,2014-07-23 18:34:00,
2014-07-23 13:40:00,75.6,55.0,30.17,North,356,3.0,13.0,49,0.00,,,0.00,meteohub,2014-07-23 18:40:00,
2014-07-23 13:45:00,76.1,55.6,30.17,NNE,24,8.0,12.0,49,0.00,,,0.00,meteohub,2014-07-23 18:45:00,
2014-07-23 13:50:00,75.4,55.4,30.17,NNW,327,6.0,12.0,50,0.00,,,0.00,meteohub,2014-07-23 18:50:00,
2014-07-23 13:55:00,75.0,55.0,30.17,ENE,70,10.0,13.0,50,0.00,,,0.00,meteohub,2014-07-23 18:55:00,
2014-07-23 14:00:00,74.7,56.5,30.17,NE,54,3.0,15.0,53,0.00,,,0.00,meteohub,2014-07-23 19:00:00,
2014-07-23 14:05:00,75.4,55.4,30.17,North,352,4.0,15.0,50,0.00,,,0.00,meteohub,2014-07-23 19:05:00,
2014-07-23 14:10:00,75.9,55.4,30.17,NE,45,0.0,13.0,49,0.00,,,0.00,meteohub,2014-07-23 19:10:00,
2014-07-23 14:15:00,75.4,55.4,30.18,NE,48,1.0,12.0,50,0.00,,,0.00,meteohub,2014-07-23 19:15:00,
2014-07-23 14:20:00,74.5,55.8,30.17,NNE,23,7.0,16.0,52,0.00,,,0.00,meteohub,2014-07-23 19:20:00,
2014-07-23 14:25:00,75.0,56.1,30.17,NE,48,4.0,16.0,52,0.00,,,0.00,meteohub,2014-07-23 19:25:00,
2014-07-23 14:31:00,75.7,55.8,30.17,NE,50,6.0,16.0,50,0.00,,,0.00,meteohub,2014-07-23 19:31:00,
2014-07-23 14:36:00,75.9,55.4,30.17,NNW,345,2.0,11.0,49,0.00,,,0.00,meteohub,2014-07-23 19:36:00,
2014-07-23 14:41:00,76.3,55.8,30.17,NNE,30,5.0,11.0,49,0.00,,,0.00,meteohub,2014-07-23 19:41:00,
2014-07-23 14:46:00,76.3,55.8,30.17,NNW,344,9.0,11.0,49,0.00,,,0.00,meteohub,2014-07-23 19:46:00,
2014-07-23 14:51:00,75.7,56.3,30.16,WNW,302,10.0,10.0,51,0.00,,,0.00,meteohub,2014-07-23 19:51:00,
2014-07-23 14:56:00,75.7,55.8,30.16,NNE,27,1.0,13.0,50,0.00,,,0.00,meteohub,2014-07-23 19:56:00,
2014-07-23 15:01:00,76.6,56.1,30.16,NW,307,8.0,13.0,49,0.00,,,0.00,meteohub,2014-07-23 20:01:00,
2014-07-23 15:06:00,76.8,56.3,30.16,NNW,345,1.0,13.0,49,0.00,,,0.00,meteohub,2014-07-23 20:06:00,
2014-07-23 15:11:00,76.6,56.7,30.16,NNW,332,8.0,10.0,50,0.00,,,0.00,meteohub,2014-07-23 20:11:00,
2014-07-23 15:16:00,76.1,56.1,30.16,North,357,2.0,9.0,50,0.00,,,0.00,meteohub,2014-07-23 20:16:00,
2014-07-23 15:22:00,75.7,55.8,30.16,NNW,336,5.0,11.0,50,0.00,,,0.00,meteohub,2014-07-23 20:22:00,
2014-07-23 15:27:00,75.9,55.9,30.16,NE,37,2.0,11.0,50,0.00,,,0.00,meteohub,2014-07-23 20:27:00,
2014-07-23 15:32:00,76.5,55.9,30.15,NW,311,1.0,11.0,49,0.00,,,0.00,meteohub,2014-07-23 20:32:00,
2014-07-23 15:37:00,76.3,56.8,30.16,NNE,17,7.0,11.0,51,0.00,,,0.00,meteohub,2014-07-23 20:37:00,
2014-07-23 15:42:00,75.6,56.1,30.15,NNE,14,0.0,10.0,51,0.00,,,0.00,meteohub,2014-07-23 20:42:00,
2014-07-23 15:47:00,75.6,56.7,30.15,NNW,337,4.0,10.0,52,0.00,,,0.00,meteohub,2014-07-23 20:47:00,
2014-07-23 15:52:00,75.6,56.1,30.15,NW,326,10.0,12.0,51,0.00,,,0.00,meteohub,2014-07-23 20:52:00,
2014-07-23 15:57:00,75.4,56.5,30.15,NNE,20,5.0,13.0,52,0.00,,,0.00,meteohub,2014-07-23 20:57:00,
2014-07-23 16:02:00,74.8,56.1,30.15,North,351,10.0,15.0,52,0.00,,,0.00,meteohub,2014-07-23 21:02:00,
2014-07-23 16:07:00,75.0,56.1,30.15,NE,41,7.0,15.0,52,0.00,,,0.00,meteohub,2014-07-23 21:07:00,
2014-07-23 16:12:00,75.6,56.1,30.14,NNW,327,11.0,15.0,51,0.00,,,0.00,meteohub,2014-07-23 21:12:00,
2014-07-23 16:17:00,76.5,57.6,30.15,NNW,337,0.0,13.0,52,0.00,,,0.00,meteohub,2014-07-23 21:17:00,
2014-07-23 16:22:00,76.6,57.7,30.14,NE,41,8.0,13.0,52,0.00,,,0.00,meteohub,2014-07-23 21:22:00,
2014-07-23 16:27:00,75.9,57.0,30.14,NE,39,6.0,13.0,52,0.00,,,0.00,meteohub,2014-07-23 21:27:00,
2014-07-23 16:32:00,75.9,57.0,30.14,North,6,1.0,11.0,52,0.00,,,0.00,meteohub,2014-07-23 21:32:00,
2014-07-23 16:37:00,76.1,57.2,30.14,NNE,31,2.0,10.0,52,0.00,,,0.00,meteohub,2014-07-23 21:37:00,
2014-07-23 16:42:00,76.6,57.2,30.14,NNE,16,7.0,10.0,51,0.00,,,0.00,meteohub,2014-07-23 21:42:00,
2014-07-23 16:47:00,76.8,56.3,30.14,North,352,3.0,10.0,49,0.00,,,0.00,meteohub,2014-07-23 21:47:00,
2014-07-23 16:52:00,76.6,56.7,30.14,NE,56,4.0,12.0,50,0.00,,,0.00,meteohub,2014-07-23 21:52:00,
2014-07-23 16:57:00,76.5,56.5,30.14,NE,49,3.0,12.0,50,0.00,,,0.00,meteohub,2014-07-23 21:57:00,
2014-07-23 17:02:00,76.5,57.0,30.14,North,356,4.0,12.0,51,0.00,,,0.00,meteohub,2014-07-23 22:02:00,
2014-07-23 17:07:00,75.7,56.3,30.13,ENE,67,4.0,10.0,51,0.00,,,0.00,meteohub,2014-07-23 22:07:00,
2014-07-23 17:12:00,75.0,56.1,30.13,NE,54,4.0,10.0,52,0.00,,,0.00,meteohub,2014-07-23 22:12:00,
2014-07-23 17:17:00,75.4,57.0,30.13,NNE,22,0.0,10.0,53,0.00,,,0.00,meteohub,2014-07-23 22:17:00,
2014-07-23 17:22:00,75.6,56.1,30.13,NNE,27,4.0,10.0,51,0.00,,,0.00,meteohub,2014-07-23 22:22:00,
2014-07-23 17:27:00,75.7,56.3,30.13,NNW,341,2.0,10.0,51,0.00,,,0.00,meteohub,2014-07-23 22:27:00,
2014-07-23 17:32:00,76.5,57.0,30.13,North,10,3.0,10.0,51,0.00,,,0.00,meteohub,2014-07-23 22:32:00,
2014-07-23 17:37:00,76.8,56.8,30.13,NNE,18,0.0,9.0,50,0.00,,,0.00,meteohub,2014-07-23 22:37:00,
2014-07-23 17:42:00,77.2,57.0,30.13,NNW,341,3.0,8.0,50,0.00,,,0.00,meteohub,2014-07-23 22:42:00,
2014-07-23 17:47:00,76.8,56.8,30.12,NNE,27,2.0,9.0,50,0.00,,,0.00,meteohub,2014-07-23 22:47:00,
2014-07-23 17:52:00,76.8,57.4,30.12,NW,308,4.0,9.0,51,0.00,,,0.00,meteohub,2014-07-23 22:52:00,
2014-07-23 17:57:00,76.3,57.4,30.12,NE,52,1.0,9.0,52,0.00,,,0.00,meteohub,2014-07-23 22:57:00,
2014-07-23 18:02:00,76.1,56.7,30.12,ENE,64,8.0,9.0,51,0.00,,,0.00,meteohub,2014-07-23 23:02:00,
2014-07-23 18:07:00,75.9,57.0,30.13,NW,307,3.0,10.0,52,0.00,,,0.00,meteohub,2014-07-23 23:07:00,
2014-07-23 18:12:00,76.3,57.4,30.12,NNE,32,3.0,10.0,52,0.00,,,0.00,meteohub,2014-07-23 23:12:00,
2014-07-23 18:17:00,76.3,56.8,30.13,NNW,328,2.0,10.0,51,0.00,,,0.00,meteohub,2014-07-23 23:17:00,
2014-07-23 18:22:00,75.9,57.0,30.13,NNE,29,5.0,16.0,52,0.00,,,0.00,meteohub,2014-07-23 23:22:00,
2014-07-23 18:27:00,75.6,57.2,30.13,NE,40,5.0,16.0,53,0.00,,,0.00,meteohub,2014-07-23 23:27:00,
2014-07-23 18:32:00,74.7,56.5,30.12,NE,54,8.0,16.0,53,0.00,,,0.00,meteohub,2014-07-23 23:32:00,
2014-07-23 18:37:00,74.1,56.5,30.12,NNE,33,8.0,14.0,54,0.00,,,0.00,meteohub,2014-07-23 23:37:00,
2014-07-23 18:42:00,74.1,56.8,30.12,East,101,5.0,14.0,55,0.00,,,0.00,meteohub,2014-07-23 23:42:00,
2014-07-23 18:47:00,74.5,57.2,30.13,NE,41,9.0,14.0,55,0.00,,,0.00,meteohub,2014-07-23 23:47:00,
2014-07-23 18:52:00,74.5,57.2,30.12,ENE,62,9.0,14.0,55,0.00,,,0.00,meteohub,2014-07-23 23:52:00,
2014-07-23 18:57:00,74.5,56.7,30.13,ENE,57,8.0,15.0,54,0.00,,,0.00,meteohub,2014-07-23 23:57:00,
2014-07-23 19:02:00,74.1,56.8,30.12,NE,47,8.0,15.0,55,0.00,,,0.00,meteohub,2014-07-24 00:02:00,
2014-07-23 19:07:00,73.9,56.8,30.13,NNE,28,6.0,14.0,55,0.00,,,0.00,meteohub,2014-07-24 00:07:00,
2014-07-23 19:12:00,73.6,56.5,30.13,NE,49,6.0,14.0,55,0.00,,,0.00,meteohub,2014-07-24 00:12:00,
2014-07-23 19:17:00,73.2,56.7,30.13,NE,54,5.0,14.0,56,0.00,,,0.00,meteohub,2014-07-24 00:17:00,
2014-07-23 19:22:00,73.4,56.7,30.13,NNE,26,5.0,12.0,56,0.00,,,0.00,meteohub,2014-07-24 00:22:00,
2014-07-23 19:27:00,73.6,56.8,30.13,North,11,7.0,14.0,56,0.00,,,0.00,meteohub,2014-07-24 00:27:00,
2014-07-23 19:32:00,73.6,56.8,30.13,ENE,72,5.0,14.0,56,0.00,,,0.00,meteohub,2014-07-24 00:32:00,
2014-07-23 19:37:00,73.6,56.8,30.13,North,359,4.0,14.0,56,0.00,,,0.00,meteohub,2014-07-24 00:37:00,
2014-07-23 19:42:00,73.6,56.8,30.13,NNE,12,5.0,14.0,56,0.00,,,0.00,meteohub,2014-07-24 00:42:00,
2014-07-23 19:47:00,73.4,56.3,30.13,NNE,13,2.0,13.0,55,0.00,,,0.00,meteohub,2014-07-24 00:47:00,
2014-07-23 19:52:00,73.2,56.1,30.13,NNE,12,10.0,14.0,55,0.00,,,0.00,meteohub,2014-07-24 00:52:00,
2014-07-23 19:57:00,73.2,56.1,30.13,NE,47,9.0,14.0,55,0.00,,,0.00,meteohub,2014-07-24 00:57:00,
2014-07-23 20:02:00,73.0,55.9,30.13,NE,39,2.0,14.0,55,0.00,,,0.00,meteohub,2014-07-24 01:02:00,
2014-07-23 20:07:00,73.0,56.5,30.13,NNE,30,7.0,13.0,56,0.00,,,0.00,meteohub,2014-07-24 01:07:00,
2014-07-23 20:12:00,73.0,56.5,30.13,NE,54,12.0,12.0,56,0.00,,,0.00,meteohub,2014-07-24 01:12:00,
2014-07-23 20:17:00,72.9,55.8,30.13,NNE,33,7.0,13.0,55,0.00,,,0.00,meteohub,2014-07-24 01:17:00,
2014-07-23 20:22:00,72.7,56.1,30.13,NE,39,8.0,13.0,56,0.00,,,0.00,meteohub,2014-07-24 01:22:00,
2014-07-23 20:27:00,72.3,55.8,30.13,ENE,73,5.0,13.0,56,0.00,,,0.00,meteohub,2014-07-24 01:27:00,
2014-07-23 20:32:00,72.0,55.9,30.13,East,93,8.0,12.0,57,0.00,,,0.00,meteohub,2014-07-24 01:32:00,
2014-07-23 20:37:00,71.8,55.8,30.14,East,82,8.0,12.0,57,0.00,,,0.00,meteohub,2014-07-24 01:37:00,
2014-07-23 20:42:00,71.4,55.9,30.14,East,95,7.0,12.0,58,0.00,,,0.00,meteohub,2014-07-24 01:42:00,
2014-07-23 20:47:00,71.2,55.8,30.14,East,92,10.0,12.0,58,0.00,,,0.00,meteohub,2014-07-24 01:47:00,
2014-07-23 20:52:00,71.1,55.9,30.14,East,95,5.0,14.0,59,0.00,,,0.00,meteohub,2014-07-24 01:52:00,
2014-07-23 20:57:00,70.9,55.8,30.14,ENE,75,5.0,14.0,59,0.00,,,0.00,meteohub,2014-07-24 01:57:00,
2014-07-23 21:02:00,70.9,55.8,30.14,ENE,76,3.0,14.0,59,0.00,,,0.00,meteohub,2014-07-24 02:02:00,
2014-07-23 21:07:00,70.7,55.2,30.14,ENE,65,8.0,12.0,58,0.00,,,0.00,meteohub,2014-07-24 02:07:00,
2014-07-23 21:12:00,70.5,55.6,30.14,SE,127,8.0,12.0,59,0.00,,,0.00,meteohub,2014-07-24 02:12:00,
2014-07-23 21:17:00,70.0,57.2,30.14,SSE,157,3.0,12.0,64,0.00,,,0.00,meteohub,2014-07-24 02:17:00,
2014-07-23 21:22:00,69.3,57.9,30.15,East,101,11.0,12.0,67,0.00,,,0.00,meteohub,2014-07-24 02:22:00,
2014-07-23 21:27:00,68.7,57.7,30.14,SSE,160,7.0,13.0,68,0.00,,,0.00,meteohub,2014-07-24 02:27:00,
2014-07-23 21:32:00,68.4,58.3,30.14,SSE,151,10.0,13.0,70,0.00,,,0.00,meteohub,2014-07-24 02:32:00,
2014-07-23 21:37:00,67.8,57.7,30.14,SE,144,12.0,13.0,70,0.00,,,0.00,meteohub,2014-07-24 02:37:00,
2014-07-23 21:42:00,67.3,57.9,30.14,SE,124,7.0,16.0,72,0.00,,,0.00,meteohub,2014-07-24 02:42:00,
2014-07-23 21:47:00,66.9,57.9,30.15,SSE,162,2.0,16.0,73,0.00,,,0.00,meteohub,2014-07-24 02:47:00,